This is the latest recevied weather packets stored in our database for station/object NW5W-12. If no packets are shown the sender has not sent any weather packets the latest 1 day(s).
| Time | Temp. | Humidity | Pressure | Rain* | Wind** | Luminosity | Snow |
|---|---|---|---|---|---|---|---|
| 1778007342 | 8.33° C | 66% | 1012.8 hPa | 0.51 mm | 2.24 m/s, 146° | - | - |
| 1778007042 | 8.33° C | 67% | 1012.8 hPa | 0.51 mm | 2.24 m/s, 154° | - | - |
| 1778006742 | 7.78° C | 69% | 1012.8 hPa | 0.51 mm | 3.13 m/s, 160° | - | - |
| 1778006442 | 7.22° C | 68% | 1012.9 hPa | 0.51 mm | 3.13 m/s, 168° | - | - |
| 1778006142 | 7.22° C | 70% | 1012.9 hPa | 0.51 mm | 3.13 m/s, 177° | - | - |
| 1778005842 | 7.22° C | 70% | 1012.8 hPa | 0.51 mm | 3.13 m/s, 156° | - | - |
| 1778005542 | 6.67° C | 71% | 1012.8 hPa | 0.51 mm | 1.79 m/s, 162° | - | - |
| 1778005242 | 6.67° C | 71% | 1012.8 hPa | 0.51 mm | 2.24 m/s, 169° | - | - |
| 1778004942 | 6.67° C | 71% | 1012.9 hPa | 0.51 mm | 2.68 m/s, 164° | - | - |
| 1778004642 | 6.67° C | 73% | 1012.9 hPa | 0.51 mm | 1.79 m/s, 164° | - | - |
| 1778004342 | 6.67° C | 72% | 1012.9 hPa | 0.51 mm | 3.13 m/s, 155° | - | - |
| 1778004042 | 6.67° C | 71% | 1012.8 hPa | 0.51 mm | 2.68 m/s, 149° | - | - |
| 1778003742 | 6.67° C | 72% | 1012.8 hPa | 0.51 mm | 3.58 m/s, 168° | - | - |
| 1778003442 | 6.67° C | 72% | 1012.9 hPa | 0.51 mm | 2.24 m/s, 147° | - | - |
| 1778003142 | 6.67° C | 70% | 1013 hPa | 0.51 mm | 3.58 m/s, 166° | - | - |
| 1778002842 | 6.67° C | 69% | 1013 hPa | 0.51 mm | 4.02 m/s, 152° | - | - |
| 1778002542 | 6.67° C | 72% | 1012.9 hPa | 0.51 mm | 3.13 m/s, 168° | - | - |
| 1778002243 | 6.67° C | 74% | 1012.9 hPa | 0.51 mm | 3.13 m/s, 175° | - | - |
| 1778001942 | 6.67° C | 75% | 1012.9 hPa | 0.51 mm | 2.68 m/s, 166° | - | - |
| 1778001642 | 6.11° C | 78% | 1013 hPa | 0.51 mm | 3.13 m/s, 174° | - | - |
| 1778001342 | 6.11° C | 79% | 1013 hPa | 0.51 mm | 3.13 m/s, 167° | - | - |
| 1778001042 | 6.11° C | 78% | 1012.9 hPa | 0.51 mm | 1.34 m/s, 173° | - | - |
| 1778000742 | 5.56° C | 77% | 1012.9 hPa | 0.51 mm | 2.24 m/s, 171° | - | - |
| 1778000442 | 5.56° C | 78% | 1012.9 hPa | 0.51 mm | 2.68 m/s, 196° | - | - |
| 1778000142 | 6.11° C | 77% | 1013 hPa | 0.51 mm | 3.13 m/s, 167° | - | - |
* Rain since midnight (hover to see other rain measurements)
** Current wind speed in m/s (hover to see current wind gust speed)